Franktown, CO

11:57 AM MDT on October 01, 2016 (GMT -0600)
Monument Pass

Weather History for KMNH - September, 2013

Change the Weather History Date:

Thursday, September 12, 2013

  Actual Average Record
Temperature  
Mean Temperature 56 °F -  
Max Temperature 62 °F - 78 °F (2001)
Min Temperature 51 °F - 28 °F (2014)
Degree Days  
Heating Degree Days 8    
Month to date heating degree days  
Cooling Degree Days 0    
Month to date cooling degree days  
Growing Degree Days 6 (Base 50)    
Moisture  
Dew Point 54 °F    
Average Humidity 96    
Maximum Humidity 100    
Minimum Humidity 72    
Precipitation  
Precipitation 1.56 in - 4.01 in (2002)
Sea Level Pressure  
Sea Level Pressure 30.34 in    
Wind  
Wind Speed 7 mph (East)    
Max Wind Speed 20 mph    
Max Gust Speed 25 mph    
Visibility 7 miles    
Events Rain , Thunderstorm    
T = Trace of Precipitation, MM = Missing Value Source: NWS Daily Summary

Daily Weather History Graph

Daily Weather History Graph

Search for Another Location

Airport or City:

Trip Planner

Search our weather history database for the weather conditions in past years. The results will help you decide how hot, cold, wet, or windy it might be!

Date:

Astronomy

Sep. 12, 2013 Rise Set
Actual Time 6:37 AM MDT 7:11 PM MDT
Civil Twilight 6:10 AM MDT 7:38 PM MDT
Nautical Twilight 5:38 AM MDT 8:09 PM MDT
Astronomical Twilight 5:05 AM MDT 8:42 PM MDT
Moon 2:04 PM MDT (9/12) No Moon Set
Length of Visible Light 13h 27m
Length of Day
12h 33m
Waxing Crescent, 51% of the Moon is Illuminated
Sep 12
Waxing Crescent
Sep 19
Full
Sep 26
Last Quarter
Oct 4
New
Oct 11
First Quarter

Hourly Weather History & Observations

Time (MDT) Temp. Dew Point Humidity Pressure Visibility Wind Dir Wind Speed Gust Speed Precip Events Conditions
12:13 AM 55.4 °F 55.4 °F 100% 30.33 in 10.0 mi ESE 4.6 mph - N/A   Overcast
12:33 AM 55.4 °F 55.4 °F 100% 30.33 in 10.0 mi ESE 4.6 mph - N/A   Overcast
12:53 AM 55.4 °F 55.4 °F 100% 30.33 in 10.0 mi SE 6.9 mph - N/A   Overcast
1:13 AM 55.4 °F 55.4 °F 100% 30.33 in 10.0 mi SE 5.8 mph - N/A   Overcast
1:32 AM 55.4 °F 55.4 °F 100% 30.33 in 10.0 mi ESE 4.6 mph - N/A   Overcast
1:52 AM 55.4 °F 55.4 °F 100% 30.34 in 10.0 mi ESE 6.9 mph - N/A   Overcast
2:12 AM 55.4 °F 55.4 °F 100% 30.34 in 10.0 mi SE 8.1 mph - N/A Thunderstorm Overcast
2:33 AM 55.4 °F 55.4 °F 100% 30.34 in 10.0 mi ESE 5.8 mph - N/A   Overcast
2:53 AM 55.4 °F 55.4 °F 100% 30.34 in 10.0 mi East 4.6 mph - N/A   Overcast
3:13 AM 55.4 °F 55.4 °F 100% 30.34 in 10.0 mi East 6.9 mph - N/A Rain Light Rain
3:33 AM 55.4 °F 55.4 °F 100% 30.33 in 10.0 mi ESE 5.8 mph - N/A   Overcast
3:53 AM 55.4 °F 55.4 °F 100% 30.33 in 10.0 mi SE 4.6 mph - N/A   Overcast
4:13 AM 55.4 °F 55.4 °F 100% 30.33 in 10.0 mi SE 6.9 mph - N/A   Overcast
4:33 AM 55.4 °F 53.6 °F 94% 30.34 in 7.0 mi SE 5.8 mph - 0.02 in Rain Light Rain
4:53 AM 55.4 °F 53.6 °F 94% 30.34 in 7.0 mi East 5.8 mph - 0.03 in Rain Rain
5:13 AM 55.4 °F 55.4 °F 100% 30.34 in 5.0 mi East 8.1 mph - N/A   Drizzle
5:33 AM 55.4 °F 53.6 °F 94% 30.34 in 7.0 mi East 5.8 mph - 0.01 in Rain Heavy Rain
5:52 AM 55.4 °F 53.6 °F 94% 30.34 in 7.0 mi East 3.5 mph - 0.02 in   Overcast
6:13 AM 55.4 °F 53.6 °F 94% 30.34 in 7.0 mi East 3.5 mph - N/A   Overcast
6:32 AM 55.4 °F 55.4 °F 100% 30.35 in 7.0 mi ESE 4.6 mph - N/A   Overcast
6:53 AM 55.4 °F 55.4 °F 100% 30.36 in 10.0 mi Calm Calm - N/A Thunderstorm Overcast
7:13 AM 53.6 °F 53.6 °F 100% 30.37 in 5.0 mi West 3.5 mph - N/A   Overcast
7:33 AM 53.6 °F 53.6 °F 100% 30.37 in 2.0 mi West 5.8 mph - N/A   Drizzle
7:53 AM 53.6 °F 53.6 °F 100% 30.37 in 4.0 mi West 5.8 mph - N/A   Light Drizzle
8:13 AM 55.4 °F 53.6 °F 94% 30.37 in 7.0 mi West 5.8 mph - N/A   Light Drizzle
8:33 AM 55.4 °F 53.6 °F 94% 30.37 in 10.0 mi WNW 4.6 mph - N/A   Overcast
8:53 AM 55.4 °F 53.6 °F 94% 30.38 in 5.0 mi NW 4.6 mph - N/A   Overcast
9:13 AM 55.4 °F 53.6 °F 94% 30.38 in 5.0 mi WNW 5.8 mph - N/A Rain Light Rain
9:33 AM 55.4 °F 53.6 °F 94% 30.38 in 1.8 mi WNW 6.9 mph - 0.02 in Rain , Thunderstorm Heavy Thunderstorms and Rain
9:53 AM 55.4 °F 55.4 °F 100% 30.38 in 4.0 mi NW 6.9 mph - 0.03 in   Overcast
10:13 AM 55.4 °F 55.4 °F 100% 30.39 in 5.0 mi WNW 6.9 mph - N/A   Overcast
10:33 AM 55.4 °F 55.4 °F 100% 30.39 in 3.0 mi WNW 8.1 mph - N/A   Overcast
10:53 AM 55.4 °F 55.4 °F 100% 30.39 in 7.0 mi WNW 5.8 mph - N/A   Light Drizzle
11:13 AM 57.2 °F 55.4 °F 94% 30.39 in 4.0 mi WNW 5.8 mph - N/A   Drizzle
11:32 AM 57.2 °F 55.4 °F 94% 30.38 in 7.0 mi NW 5.8 mph - 0.01 in   Overcast
11:53 AM 57.2 °F 55.4 °F 94% 30.38 in 10.0 mi WNW 4.6 mph - 0.01 in   Overcast
12:13 PM 57.2 °F 55.4 °F 94% 30.37 in 10.0 mi NNW 3.5 mph - N/A Rain Light Rain
12:33 PM 59.0 °F 55.4 °F 88% 30.37 in 10.0 mi NNW 3.5 mph - N/A   Overcast
12:53 PM 60.8 °F 55.4 °F 82% 30.36 in 10.0 mi NW 3.5 mph - N/A Rain Rain
1:13 PM 60.8 °F 55.4 °F 82% 30.36 in 10.0 mi North 4.6 mph - N/A Rain Light Rain
1:33 PM 60.8 °F 55.4 °F 82% 30.34 in 10.0 mi NNW 4.6 mph - N/A Rain Rain
1:53 PM 60.8 °F 55.4 °F 82% 30.34 in 10.0 mi North 3.5 mph - N/A   Light Drizzle
2:13 PM 62.6 °F 55.4 °F 77% 30.33 in 10.0 mi North 6.9 mph - N/A   Overcast
2:33 PM 62.6 °F 53.6 °F 72% 30.33 in 10.0 mi NNW 5.8 mph - N/A   Overcast
2:53 PM 60.8 °F 55.4 °F 82% 30.32 in 10.0 mi North 8.1 mph - N/A   Overcast
3:13 PM 59.0 °F 55.4 °F 88% 30.31 in 7.0 mi NNE 3.5 mph - 0.03 in Rain Light Rain
3:33 PM 57.2 °F 55.4 °F 94% 30.32 in 1.2 mi ESE 6.9 mph - 0.34 in Rain Heavy Rain
3:53 PM 55.4 °F 55.4 °F 100% 30.31 in 2.0 mi East 6.9 mph - 0.66 in Rain , Thunderstorm Rain
4:13 PM 57.2 °F 55.4 °F 94% 30.30 in 5.0 mi East 18.4 mph 23.0 mph 0.01 in Rain Rain
4:33 PM 55.4 °F 55.4 °F 100% 30.30 in 4.0 mi East 19.6 mph 25.3 mph 0.05 in Rain Rain
4:53 PM 55.4 °F 55.4 °F 100% 30.30 in 5.0 mi East 15.0 mph - 0.12 in Rain Rain
5:13 PM 55.4 °F 55.4 °F 100% 30.30 in 5.0 mi East 12.7 mph - 0.03 in Rain Light Rain
5:33 PM 55.4 °F 53.6 °F 94% 30.31 in 7.0 mi East 16.1 mph - 0.05 in Rain Light Rain
5:53 PM 55.4 °F 53.6 °F 94% 30.32 in 5.0 mi East 13.8 mph - 0.08 in Rain Light Rain
6:13 PM 55.4 °F 53.6 °F 94% 30.31 in 3.0 mi East 13.8 mph 20.7 mph 0.06 in Rain Light Rain
6:33 PM 53.6 °F 53.6 °F 100% 30.31 in 5.0 mi East 15.0 mph 18.4 mph 0.11 in Rain Light Rain
6:53 PM 53.6 °F 53.6 °F 100% 30.31 in 7.0 mi East 16.1 mph - 0.14 in Rain Light Rain
7:13 PM 53.6 °F 53.6 °F 100% 30.30 in 10.0 mi ESE 16.1 mph 19.6 mph 0.01 in Rain Light Rain
7:33 PM 53.6 °F 53.6 °F 100% 30.30 in 10.0 mi East 16.1 mph - 0.02 in   Drizzle
7:53 PM 53.6 °F 51.8 °F 94% 30.30 in 7.0 mi ESE 18.4 mph 24.2 mph 0.04 in Rain Light Rain
8:13 PM 53.6 °F 51.8 °F 94% 30.31 in 7.0 mi ESE 18.4 mph - 0.06 in Rain Light Rain
8:33 PM 53.6 °F 51.8 °F 94% 30.32 in 10.0 mi ESE 18.4 mph 24.2 mph 0.09 in Rain Rain
8:53 PM 51.8 °F 51.8 °F 100% 30.32 in 10.0 mi ESE 15.0 mph 23.0 mph 0.13 in Rain Rain
9:13 PM 51.8 °F 51.8 °F 100% 30.32 in 10.0 mi ESE 13.8 mph 18.4 mph 0.03 in Rain Light Rain
9:33 PM 51.8 °F 51.8 °F 100% 30.32 in 7.0 mi ESE 16.1 mph - 0.07 in Rain Rain
9:53 PM 51.8 °F 51.8 °F 100% 30.31 in 10.0 mi ESE 12.7 mph - 0.10 in Rain Light Rain
10:13 PM 51.8 °F 51.8 °F 100% 30.31 in 10.0 mi ESE 10.4 mph - 0.02 in Rain Rain
10:33 PM 51.8 °F 51.8 °F 100% 30.30 in 1.5 mi ESE 8.1 mph - 0.03 in Rain Light Rain
10:53 PM 51.8 °F 51.8 °F 100% 30.30 in 10.0 mi SE 11.5 mph 16.1 mph 0.05 in Rain Light Rain
11:13 PM 53.6 °F 51.8 °F 94% 30.31 in 7.0 mi ESE 6.9 mph - 0.04 in Rain Rain
11:33 PM 53.6 °F 51.8 °F 94% 30.29 in 5.0 mi ESE 5.8 mph - 0.11 in Rain Rain
11:53 PM 53.6 °F 51.8 °F 94% 30.29 in 7.0 mi ESE 5.8 mph - 0.15 in Rain Rain